Year,Month,Day,Hour,Minute,Value (Times are PST for barometer in hPa)
2021,10,05,00,00,932.24
2021,10,05,00,01,932.24
2021,10,05,00,02,932.24
2021,10,05,00,03,932.24
2021,10,05,00,04,932.24
2021,10,05,00,05,932.24
2021,10,05,00,06,932.24
2021,10,05,00,07,932.24
2021,10,05,00,08,932.24
2021,10,05,00,09,942.06
2021,10,05,00,10,948.60
2021,10,05,00,11,948.60
2021,10,05,00,12,948.60
2021,10,05,00,13,948.60
2021,10,05,00,14,948.60
2021,10,05,00,15,948.60
2021,10,05,00,16,946.09
2021,10,05,00,17,944.74
2021,10,05,00,18,944.74
2021,10,05,00,19,944.74
2021,10,05,00,20,944.74
2021,10,05,00,21,944.74
2021,10,05,00,22,944.74
2021,10,05,00,23,944.74
2021,10,05,00,24,944.74
2021,10,05,00,25,944.74
2021,10,05,00,26,944.74
2021,10,05,00,27,944.74
2021,10,05,00,28,944.74
2021,10,05,00,29,933.05
2021,10,05,00,30,925.40
2021,10,05,00,31,925.47
2021,10,05,00,32,925.47
2021,10,05,00,33,925.47
2021,10,05,00,34,925.47
2021,10,05,00,35,925.47
2021,10,05,00,36,925.47
2021,10,05,00,37,925.47
2021,10,05,00,38,925.47
2021,10,05,00,39,925.47
2021,10,05,00,40,925.47
2021,10,05,00,41,925.47
2021,10,05,00,42,925.47
2021,10,05,00,43,925.47
2021,10,05,00,44,925.47
2021,10,05,00,45,925.47
2021,10,05,00,46,925.47
2021,10,05,00,47,925.47
2021,10,05,00,48,925.47
2021,10,05,00,49,948.14
2021,10,05,00,50,960.35
2021,10,05,00,51,960.35
2021,10,05,00,52,960.35
2021,10,05,00,53,960.35
2021,10,05,00,54,960.35
2021,10,05,00,55,960.35
2021,10,05,00,56,960.35
2021,10,05,00,57,960.35
2021,10,05,00,58,960.35
2021,10,05,00,59,960.35
2021,10,05,01,00,960.35
2021,10,05,01,01,960.35
2021,10,05,01,02,960.35
2021,10,05,01,03,960.35
2021,10,05,01,04,960.35
2021,10,05,01,05,960.35
2021,10,05,01,06,960.35
2021,10,05,01,07,960.35
2021,10,05,01,08,960.35
2021,10,05,01,09,953.50
2021,10,05,01,10,949.06
2021,10,05,01,11,949.14
2021,10,05,01,12,949.14
2021,10,05,01,13,949.14
2021,10,05,01,14,949.14
2021,10,05,01,15,949.14
2021,10,05,01,16,949.14
2021,10,05,01,17,949.14
2021,10,05,01,18,949.14
2021,10,05,01,19,949.14
2021,10,05,01,20,949.14
2021,10,05,01,21,949.14
2021,10,05,01,22,949.14
2021,10,05,01,23,949.14
2021,10,05,01,24,949.14
2021,10,05,01,25,949.14
2021,10,05,01,26,949.14
2021,10,05,01,27,949.14
2021,10,05,01,28,949.14
2021,10,05,01,29,949.14
2021,10,05,01,30,949.14
2021,10,05,01,31,949.14
2021,10,05,01,32,949.14
2021,10,05,01,33,949.14
2021,10,05,01,34,949.14
2021,10,05,01,35,949.14
2021,10,05,01,36,949.14
2021,10,05,01,37,949.14
2021,10,05,01,38,949.14
2021,10,05,01,39,949.14
2021,10,05,01,40,949.14
2021,10,05,01,41,949.14
2021,10,05,01,42,949.14
2021,10,05,01,43,949.14
2021,10,05,01,44,949.14
2021,10,05,01,45,949.14
2021,10,05,01,46,949.14
2021,10,05,01,47,949.14
2021,10,05,01,48,949.14
2021,10,05,01,49,949.14
2021,10,05,01,50,949.14
2021,10,05,01,51,949.14
2021,10,05,01,52,949.14
2021,10,05,01,53,949.14
2021,10,05,01,54,949.14
2021,10,05,01,55,949.14
2021,10,05,01,56,949.14
2021,10,05,01,57,949.14
2021,10,05,01,58,949.14
2021,10,05,01,59,949.14
2021,10,05,02,00,949.14
2021,10,05,02,01,949.14
2021,10,05,02,02,949.14
2021,10,05,02,03,949.14
2021,10,05,02,04,949.14
2021,10,05,02,05,949.14
2021,10,05,02,06,949.14
2021,10,05,02,07,949.14
2021,10,05,02,08,949.14
2021,10,05,02,09,949.14
2021,10,05,02,10,949.14
2021,10,05,02,11,951.80
2021,10,05,02,12,953.57
2021,10,05,02,13,953.57
2021,10,05,02,14,953.57
2021,10,05,02,15,953.57
2021,10,05,02,16,953.57
2021,10,05,02,17,953.57
2021,10,05,02,18,953.57
2021,10,05,02,19,953.57
2021,10,05,02,20,953.57
2021,10,05,02,21,953.57
2021,10,05,02,22,953.57
2021,10,05,02,23,953.57
2021,10,05,02,24,953.57
2021,10,05,02,25,953.57
2021,10,05,02,26,953.57
2021,10,05,02,27,953.57
2021,10,05,02,28,953.57
2021,10,05,02,29,953.57
2021,10,05,02,30,953.57
2021,10,05,02,31,953.57
2021,10,05,02,32,953.57
2021,10,05,02,33,953.57
2021,10,05,02,34,953.57
2021,10,05,02,35,954.00
2021,10,05,02,36,954.28
2021,10,05,02,37,954.28
2021,10,05,02,38,954.28
2021,10,05,02,39,954.28
2021,10,05,02,40,954.28
2021,10,05,02,41,954.28
2021,10,05,02,42,954.28
2021,10,05,02,43,954.28
2021,10,05,02,44,954.28
2021,10,05,02,45,954.28
2021,10,05,02,46,954.28
2021,10,05,02,47,954.28
2021,10,05,02,48,954.28
2021,10,05,02,49,954.28
2021,10,05,02,50,954.28
2021,10,05,02,51,954.28
2021,10,05,02,52,954.28
2021,10,05,02,53,954.28
2021,10,05,02,54,954.28
2021,10,05,02,55,954.28
2021,10,05,02,56,954.28
2021,10,05,02,57,954.28
2021,10,05,02,58,954.28
2021,10,05,02,59,954.28
2021,10,05,03,00,939.90
2021,10,05,03,01,930.31
2021,10,05,03,02,930.31
2021,10,05,03,06,930.31
2021,10,05,03,07,930.31
2021,10,05,03,08,930.31
2021,10,05,03,09,930.31
2021,10,05,03,10,930.31
2021,10,05,03,11,930.31
2021,10,05,03,12,930.31
2021,10,05,03,13,930.31
2021,10,05,03,14,930.31
2021,10,05,03,15,930.31
2021,10,05,03,16,930.31
2021,10,05,03,17,930.31
2021,10,05,03,18,930.31
2021,10,05,03,19,930.31
2021,10,05,03,20,930.31
2021,10,05,03,21,930.31
2021,10,05,03,22,930.31
2021,10,05,03,23,930.31
2021,10,05,03,24,930.31
2021,10,05,03,25,930.31
2021,10,05,03,26,930.31
2021,10,05,03,27,930.31
2021,10,05,03,28,957.51
2021,10,05,03,29,966.58
2021,10,05,03,30,966.58
2021,10,05,03,31,966.58
2021,10,05,03,32,966.58
2021,10,05,03,33,966.58
2021,10,05,03,34,966.58
2021,10,05,03,35,966.58
2021,10,05,03,36,966.58
2021,10,05,03,37,966.58
2021,10,05,03,38,966.58
2021,10,05,03,39,966.58
2021,10,05,03,40,966.58
2021,10,05,03,41,966.58
2021,10,05,03,42,966.58
2021,10,05,03,43,966.58
2021,10,05,03,44,966.58
2021,10,05,03,45,966.58
2021,10,05,03,46,966.58
2021,10,05,03,47,966.58
2021,10,05,03,48,966.58
2021,10,05,03,49,966.58
2021,10,05,03,50,966.58
2021,10,05,03,51,966.58
2021,10,05,03,52,966.58
2021,10,05,03,53,966.58
2021,10,05,03,54,966.58
2021,10,05,03,55,966.58
2021,10,05,03,56,966.58
2021,10,05,03,57,966.58
2021,10,05,03,58,966.58
2021,10,05,03,59,966.58
2021,10,05,04,00,966.58
2021,10,05,04,01,966.58
2021,10,05,04,02,966.58
2021,10,05,04,03,966.58
2021,10,05,04,04,966.58
2021,10,05,04,05,966.58
2021,10,05,04,06,966.58
2021,10,05,04,07,966.58
2021,10,05,04,08,966.58
2021,10,05,04,09,966.58
2021,10,05,04,10,966.58
2021,10,05,04,11,966.58
2021,10,05,04,12,960.74
2021,10,05,04,13,958.65
2021,10,05,04,14,958.65
2021,10,05,04,15,958.65
2021,10,05,04,16,958.65
2021,10,05,04,17,958.65
2021,10,05,04,18,975.29
2021,10,05,04,19,981.24
2021,10,05,04,20,981.24
2021,10,05,04,21,981.24
2021,10,05,04,22,981.24
2021,10,05,04,23,981.24
2021,10,05,04,24,981.24
2021,10,05,04,25,981.24
2021,10,05,04,26,981.24
2021,10,05,04,27,981.24
2021,10,05,04,28,981.24
2021,10,05,04,29,981.24
2021,10,05,04,30,981.24
2021,10,05,04,31,981.24
2021,10,05,04,32,981.24
2021,10,05,04,33,981.24
2021,10,05,04,34,981.24
2021,10,05,04,35,981.24
2021,10,05,04,36,981.24
2021,10,05,04,37,981.24
2021,10,05,04,38,981.24
2021,10,05,04,39,981.24
2021,10,05,04,40,981.24
2021,10,05,04,41,981.24
2021,10,05,04,42,981.24
2021,10,05,04,43,981.24
2021,10,05,04,44,981.24
2021,10,05,04,45,981.24
2021,10,05,04,46,981.24
2021,10,05,04,47,981.24
2021,10,05,04,48,981.24
2021,10,05,04,49,981.24
2021,10,05,04,50,981.24
2021,10,05,04,51,981.24
2021,10,05,04,52,981.24
2021,10,05,04,53,981.24
2021,10,05,04,54,981.24
2021,10,05,04,55,981.24
2021,10,05,04,56,981.24
2021,10,05,04,57,981.24
2021,10,05,04,58,981.24
2021,10,05,04,59,981.24
2021,10,05,05,00,981.24
2021,10,05,05,01,981.24
2021,10,05,05,02,981.24
2021,10,05,05,03,981.24
2021,10,05,05,04,981.24
2021,10,05,05,05,981.24
2021,10,05,05,06,981.24
2021,10,05,05,07,981.24
2021,10,05,05,08,956.47
2021,10,05,05,09,945.85
2021,10,05,05,10,945.85
2021,10,05,05,11,945.85
2021,10,05,05,12,945.85
2021,10,05,05,13,945.85
2021,10,05,05,14,945.85
2021,10,05,05,15,945.85
2021,10,05,05,16,945.85
2021,10,05,05,17,945.85
2021,10,05,05,18,945.85
2021,10,05,05,19,945.85
2021,10,05,05,20,974.37
2021,10,05,05,21,983.88
2021,10,05,05,22,983.88
2021,10,05,05,23,983.88
2021,10,05,05,24,980.58
2021,10,05,05,25,979.48
2021,10,05,05,26,979.48
2021,10,05,05,27,979.48
2021,10,05,05,28,979.48
2021,10,05,05,29,979.48
2021,10,05,05,30,979.48
2021,10,05,05,31,979.48
2021,10,05,05,32,982.43
2021,10,05,05,33,983.41
2021,10,05,05,34,983.41
2021,10,05,05,35,983.41
2021,10,05,05,36,978.91
2021,10,05,05,37,977.41
2021,10,05,05,38,977.41
2021,10,05,05,39,977.41
2021,10,05,05,40,977.41
2021,10,05,05,41,977.41
2021,10,05,05,42,977.41
2021,10,05,05,43,977.41
2021,10,05,05,44,977.41
2021,10,05,05,45,977.41
2021,10,05,05,46,977.41
2021,10,05,05,47,977.41
2021,10,05,05,48,977.41
2021,10,05,05,49,977.41
2021,10,05,05,50,977.41
2021,10,05,05,51,977.41
2021,10,05,05,52,977.41
2021,10,05,05,53,977.41
2021,10,05,05,54,977.41
2021,10,05,05,55,983.00
2021,10,05,05,56,985.00
2021,10,05,05,57,985.00
2021,10,05,05,58,985.00
2021,10,05,05,59,985.00
2021,10,05,06,00,985.00
2021,10,05,06,01,984.09
2021,10,05,06,02,983.78
2021,10,05,06,03,986.12
2021,10,05,06,04,987.13
2021,10,05,06,05,987.13
2021,10,05,06,06,987.13
2021,10,05,06,07,987.13
2021,10,05,06,08,987.13
2021,10,05,06,09,987.13
2021,10,05,06,10,987.13
2021,10,05,06,11,987.13
2021,10,05,06,12,987.13
2021,10,05,06,13,987.13
2021,10,05,06,14,987.13
2021,10,05,06,15,987.13
2021,10,05,06,16,987.13
2021,10,05,06,17,987.13
2021,10,05,06,18,987.13
2021,10,05,06,19,987.13
2021,10,05,06,20,987.13
2021,10,05,06,21,987.13
2021,10,05,06,22,987.13
2021,10,05,06,23,987.13
2021,10,05,06,24,987.13
2021,10,05,06,25,987.13
2021,10,05,06,26,987.13
2021,10,05,06,27,987.13
2021,10,05,06,28,987.13
2021,10,05,06,29,987.13
2021,10,05,06,30,987.13
2021,10,05,06,31,987.13
2021,10,05,06,32,987.13
2021,10,05,06,33,987.13
2021,10,05,06,34,987.13
2021,10,05,06,35,987.13
2021,10,05,06,36,987.13
2021,10,05,06,37,987.13
2021,10,05,06,38,987.13
2021,10,05,06,39,964.20
2021,10,05,06,40,956.01
2021,10,05,06,41,956.01
2021,10,05,06,42,956.01
2021,10,05,06,43,956.01
2021,10,05,06,44,956.01
2021,10,05,06,45,956.01
2021,10,05,06,46,956.01
2021,10,05,06,47,956.01
2021,10,05,06,48,956.01
2021,10,05,06,49,956.01
2021,10,05,06,50,956.01
2021,10,05,06,51,956.01
2021,10,05,06,52,956.01
2021,10,05,06,53,956.01
2021,10,05,06,54,956.01
2021,10,05,06,55,956.01
2021,10,05,06,56,956.01
2021,10,05,06,57,956.01
2021,10,05,06,58,956.01
2021,10,05,06,59,956.01
2021,10,05,07,00,956.01
2021,10,05,07,01,956.01
2021,10,05,07,02,956.01
2021,10,05,07,03,956.01
2021,10,05,07,04,956.01
2021,10,05,07,05,956.01
2021,10,05,07,06,956.01
2021,10,05,07,07,956.01
2021,10,05,07,08,956.01
2021,10,05,07,09,956.01
2021,10,05,07,10,956.01
2021,10,05,07,11,959.03
2021,10,05,07,12,960.11
2021,10,05,07,13,960.11
2021,10,05,07,14,960.11
2021,10,05,07,15,959.59
2021,10,05,07,16,959.40
2021,10,05,07,17,959.40
2021,10,05,07,18,959.40
2021,10,05,07,19,959.40
2021,10,05,07,20,954.18
2021,10,05,07,21,952.32
2021,10,05,07,22,952.32
2021,10,05,07,23,952.32
2021,10,05,07,24,952.32
2021,10,05,07,25,952.32
2021,10,05,07,26,952.32
2021,10,05,07,27,952.32
2021,10,05,07,28,952.32
2021,10,05,07,29,952.32
2021,10,05,07,30,952.32
2021,10,05,07,31,952.32
2021,10,05,07,32,952.32
2021,10,05,07,33,952.32
2021,10,05,07,34,952.32
2021,10,05,07,35,952.32
2021,10,05,07,36,952.32
2021,10,05,07,37,952.32
2021,10,05,07,38,952.32
2021,10,05,07,39,952.32
2021,10,05,07,40,952.32
2021,10,05,07,41,952.32
2021,10,05,07,42,952.32
2021,10,05,07,43,952.32
2021,10,05,07,44,945.14
2021,10,05,07,45,942.06
2021,10,05,07,46,942.06
2021,10,05,07,47,942.06
2021,10,05,07,48,942.06
2021,10,05,07,49,942.06
2021,10,05,07,50,942.06
2021,10,05,07,51,942.06
2021,10,05,07,52,942.06
2021,10,05,07,53,942.06
2021,10,05,07,54,942.06
2021,10,05,07,55,942.06
2021,10,05,07,56,942.06
2021,10,05,07,57,942.06
2021,10,05,07,58,942.06
2021,10,05,07,59,942.06
2021,10,05,08,00,942.06
2021,10,05,08,01,942.06
2021,10,05,08,02,942.06
2021,10,05,08,03,942.06
2021,10,05,08,04,944.20
2021,10,05,08,05,945.11
2021,10,05,08,06,945.11
2021,10,05,08,07,945.11
2021,10,05,08,08,945.11
2021,10,05,08,09,945.11
2021,10,05,08,10,945.11
2021,10,05,08,11,945.11
2021,10,05,08,12,945.11
2021,10,05,08,13,945.11
2021,10,05,08,14,945.11
2021,10,05,08,15,945.11
2021,10,05,08,16,945.11
2021,10,05,08,17,945.11
2021,10,05,08,18,945.11
2021,10,05,08,19,945.11
2021,10,05,08,20,945.11
2021,10,05,08,21,945.11
2021,10,05,08,22,945.11
2021,10,05,08,23,945.11
2021,10,05,08,24,945.11
2021,10,05,08,25,945.11
2021,10,05,08,26,945.11
2021,10,05,08,27,945.11
2021,10,05,08,28,945.11
2021,10,05,08,29,945.11
2021,10,05,08,30,945.11
2021,10,05,08,31,945.11
2021,10,05,08,32,945.11
2021,10,05,08,33,945.11
2021,10,05,08,34,945.11
2021,10,05,08,35,945.11
2021,10,05,08,36,945.11
2021,10,05,08,37,945.11
2021,10,05,08,38,945.11
2021,10,05,08,39,945.11
2021,10,05,08,40,945.11
2021,10,05,08,41,912.07
2021,10,05,08,42,900.27
2021,10,05,08,43,900.27
2021,10,05,08,44,900.27
2021,10,05,08,45,900.27
2021,10,05,08,46,900.27
2021,10,05,08,47,906.17
2021,10,05,08,48,908.70
2021,10,05,08,49,908.70
2021,10,05,08,50,908.70
2021,10,05,08,51,908.70
2021,10,05,08,52,908.70
2021,10,05,08,53,908.70
2021,10,05,08,54,908.70
2021,10,05,08,55,908.70
2021,10,05,08,56,908.70
2021,10,05,08,57,908.70
2021,10,05,08,58,908.70
2021,10,05,08,59,908.70
2021,10,05,09,00,908.70
2021,10,05,09,01,908.70
2021,10,05,09,02,908.70
2021,10,05,09,03,908.70
2021,10,05,09,04,908.70
2021,10,05,09,05,908.70
2021,10,05,09,06,908.70
2021,10,05,09,07,908.70
2021,10,05,09,08,908.70
2021,10,05,09,09,908.70
2021,10,05,09,10,908.70
2021,10,05,09,11,908.70
2021,10,05,09,12,908.70
2021,10,05,09,13,908.70
2021,10,05,18,43,904.37
2021,10,05,18,44,903.97
2021,10,05,18,45,903.59
2021,10,05,18,46,903.49
2021,10,05,18,47,903.49
2021,10,05,18,48,903.49
2021,10,05,18,49,903.06
2021,10,05,18,50,902.81
2021,10,05,18,51,902.81
2021,10,05,18,52,902.81
2021,10,05,18,53,902.81
2021,10,05,18,54,902.81
2021,10,05,18,55,902.81
2021,10,05,18,56,902.81
2021,10,05,18,57,902.81
2021,10,05,18,58,902.81
2021,10,05,18,59,902.81
2021,10,05,19,00,902.81
2021,10,05,19,01,911.66
2021,10,05,19,02,916.83
2021,10,05,19,03,916.83
2021,10,05,19,04,916.83
2021,10,05,19,05,916.83
2021,10,05,19,06,916.83
2021,10,05,19,07,916.83
2021,10,05,19,08,916.83
2021,10,05,19,09,916.83
2021,10,05,19,10,923.85
2021,10,05,19,11,928.95
2021,10,05,19,12,928.95
2021,10,05,19,13,928.95
2021,10,05,19,14,928.95
2021,10,05,19,15,928.95
2021,10,05,19,16,928.95
2021,10,05,19,17,928.95
2021,10,05,19,18,928.95
2021,10,05,19,19,928.95
2021,10,05,19,20,928.95
2021,10,05,19,21,928.95
2021,10,05,19,22,928.95
2021,10,05,19,23,928.95
2021,10,05,19,24,928.95
2021,10,05,19,25,928.95
2021,10,05,19,26,928.95
2021,10,05,19,27,928.95
2021,10,05,19,28,928.95
2021,10,05,19,29,928.95
2021,10,05,19,30,928.95
2021,10,05,19,31,928.95
2021,10,05,19,32,928.95
2021,10,05,19,33,928.95
2021,10,05,19,34,928.95
2021,10,05,19,35,928.95
2021,10,05,19,36,928.95
2021,10,05,19,37,928.95
2021,10,05,19,38,928.95
2021,10,05,19,39,928.95
2021,10,05,19,40,928.95
2021,10,05,19,41,928.95
2021,10,05,19,42,928.95
2021,10,05,19,43,928.95
2021,10,05,19,44,928.95
2021,10,05,19,45,928.95
2021,10,05,19,46,928.95
2021,10,05,19,47,928.95
2021,10,05,19,48,928.95
2021,10,05,19,49,928.95
2021,10,05,19,50,928.95
2021,10,05,19,51,928.95
2021,10,05,19,52,928.95
2021,10,05,19,53,928.95
2021,10,05,19,54,928.95
2021,10,05,19,55,952.87
2021,10,05,19,56,968.81
2021,10,05,19,57,968.81
2021,10,05,19,58,968.81
2021,10,05,19,59,968.81
2021,10,05,20,00,968.81
2021,10,05,20,01,968.81
2021,10,05,20,02,968.81
2021,10,05,20,03,968.81
2021,10,05,20,04,968.81
2021,10,05,20,05,970.36
2021,10,05,20,06,971.39
2021,10,05,20,07,971.39
2021,10,05,20,08,973.90
2021,10,05,20,09,975.72
2021,10,05,20,10,975.72
2021,10,05,20,11,980.29
2021,10,05,20,12,983.34
2021,10,05,20,13,982.59
2021,10,05,20,14,982.05
2021,10,05,20,15,982.05
2021,10,05,20,16,980.47
2021,10,05,20,17,979.73
2021,10,05,20,18,979.95
2021,10,05,20,19,979.95
2021,10,05,20,20,979.95
2021,10,05,20,21,979.95
2021,10,05,20,22,979.95
2021,10,05,20,23,979.95
2021,10,05,20,24,979.95
2021,10,05,20,25,979.95
2021,10,05,20,26,979.95
2021,10,05,20,27,979.95
2021,10,05,20,28,979.95
2021,10,05,20,29,979.95
2021,10,05,20,30,979.95
2021,10,05,20,31,979.95
2021,10,05,20,32,979.95
2021,10,05,20,33,979.95
2021,10,05,20,34,979.95
2021,10,05,20,35,979.95
2021,10,05,20,36,979.95
2021,10,05,20,37,979.95
2021,10,05,20,38,979.95
2021,10,05,20,39,979.95
2021,10,05,20,40,979.95
2021,10,05,20,41,979.95
2021,10,05,20,42,979.95
2021,10,05,20,43,969.44
2021,10,05,20,44,961.80
2021,10,05,20,45,961.80
2021,10,05,20,46,961.80
2021,10,05,20,47,961.80
2021,10,05,20,48,961.80
2021,10,05,20,49,961.80
2021,10,05,20,50,961.80
2021,10,05,20,51,961.80
2021,10,05,20,52,961.80
2021,10,05,20,53,961.80
2021,10,05,20,54,963.48
2021,10,05,20,55,964.71
2021,10,05,20,56,964.71
2021,10,05,20,57,964.71
2021,10,05,20,58,964.71
2021,10,05,20,59,964.71
2021,10,05,21,00,964.71
2021,10,05,21,01,964.71
2021,10,05,21,02,964.71
2021,10,05,21,03,964.71
2021,10,05,21,04,964.71
2021,10,05,21,05,964.71
2021,10,05,21,06,964.71
2021,10,05,21,07,964.71
2021,10,05,21,08,964.71
2021,10,05,21,09,964.71
2021,10,05,21,10,964.71
2021,10,05,21,11,964.71
2021,10,05,21,12,964.71
2021,10,05,21,13,964.71
2021,10,05,21,14,961.70
2021,10,05,21,15,959.70
2021,10,05,21,16,959.70
2021,10,05,21,17,956.96
2021,10,05,21,18,954.96
2021,10,05,21,19,954.96
2021,10,05,21,20,954.96
2021,10,05,21,21,954.96
2021,10,05,21,22,954.96
2021,10,05,21,23,957.25
2021,10,05,21,24,958.92
2021,10,05,21,25,958.92
2021,10,05,21,26,958.92
2021,10,05,21,27,958.92
2021,10,05,21,28,958.92
2021,10,05,21,29,958.92
2021,10,05,21,30,958.92
2021,10,05,21,31,958.92
2021,10,05,21,32,958.92
2021,10,05,21,33,958.92
2021,10,05,21,34,958.92
2021,10,05,21,35,969.53
2021,10,05,21,36,976.60
2021,10,05,21,37,976.60
2021,10,05,21,38,976.60
2021,10,05,21,39,976.60
2021,10,05,21,40,976.60
2021,10,05,21,41,976.60
2021,10,05,21,42,976.60
2021,10,05,21,43,976.60
2021,10,05,21,44,976.60
2021,10,05,21,45,976.60
2021,10,05,21,46,976.60
2021,10,05,21,47,976.60
2021,10,05,21,48,976.60
2021,10,05,21,49,977.78
2021,10,05,21,50,978.97
2021,10,05,21,51,979.24
2021,10,05,21,52,979.24
2021,10,05,21,53,979.24
2021,10,05,21,54,979.24
2021,10,05,21,55,979.24
2021,10,05,21,56,979.24
2021,10,05,21,57,979.24
2021,10,05,21,58,979.24
2021,10,05,21,59,979.24
2021,10,05,22,00,979.24
2021,10,05,22,01,979.24
2021,10,05,22,02,979.24
2021,10,05,22,03,979.24
2021,10,05,22,04,979.24
2021,10,05,22,05,979.24
2021,10,05,22,06,979.24
2021,10,05,22,07,979.24
2021,10,05,22,08,983.60
2021,10,05,22,09,987.17
2021,10,05,22,10,985.95
2021,10,05,22,11,985.07
2021,10,05,22,12,985.07
2021,10,05,22,13,985.07
2021,10,05,22,14,985.07
2021,10,05,22,15,986.02
2021,10,05,22,16,986.79
2021,10,05,22,17,986.37
2021,10,05,22,18,986.05
2021,10,05,22,19,986.05
2021,10,05,22,20,986.89
2021,10,05,22,21,987.57
2021,10,05,22,22,987.57
2021,10,05,22,23,987.57
2021,10,05,22,24,986.32
2021,10,05,22,25,985.62
2021,10,05,22,26,985.85
2021,10,05,22,27,985.85
2021,10,05,22,28,984.89
2021,10,05,22,29,984.22
2021,10,05,22,30,984.62
2021,10,05,22,31,984.93
2021,10,05,22,32,984.93
2021,10,05,22,33,984.93
2021,10,05,22,34,984.93
2021,10,05,22,35,984.93
2021,10,05,22,36,984.93
2021,10,05,22,37,984.93
2021,10,05,22,38,984.93
2021,10,05,22,39,986.33
2021,10,05,22,40,987.04
2021,10,05,22,41,986.79
2021,10,05,22,42,987.64
2021,10,05,22,43,988.25
2021,10,05,22,44,988.25
2021,10,05,22,45,988.34
2021,10,05,22,46,988.42
2021,10,05,22,47,988.42
2021,10,05,22,48,988.42
2021,10,05,22,49,988.42
2021,10,05,22,50,988.42
2021,10,05,22,51,982.70
2021,10,05,22,52,978.02
2021,10,05,22,53,978.02
2021,10,05,22,54,978.02
2021,10,05,22,55,978.02
2021,10,05,22,56,978.02
2021,10,05,22,57,978.02
2021,10,05,22,58,978.02
2021,10,05,22,59,978.02
2021,10,05,23,00,978.02
2021,10,05,23,01,978.02
2021,10,05,23,02,978.02
2021,10,05,23,03,978.02
2021,10,05,23,04,978.02
2021,10,05,23,05,978.02
2021,10,05,23,06,983.48
2021,10,05,23,07,987.57
2021,10,05,23,08,987.57
2021,10,05,23,09,987.57
2021,10,05,23,10,987.57
2021,10,05,23,11,987.57
2021,10,05,23,12,987.57
2021,10,05,23,13,987.57
2021,10,05,23,14,987.57
2021,10,05,23,15,987.57
2021,10,05,23,16,987.57
2021,10,05,23,17,987.57
2021,10,05,23,18,987.57
2021,10,05,23,19,987.57
2021,10,05,23,20,987.57
2021,10,05,23,21,987.57
2021,10,05,23,22,987.57
2021,10,05,23,23,987.57
2021,10,05,23,24,987.04
2021,10,05,23,25,986.66
2021,10,05,23,26,986.66
2021,10,05,23,27,986.66
2021,10,05,23,28,986.66
2021,10,05,23,29,987.82
2021,10,05,23,30,988.76
2021,10,05,23,31,988.76
2021,10,05,23,32,988.76
2021,10,05,23,33,988.76
2021,10,05,23,34,988.76
2021,10,05,23,35,988.76
2021,10,05,23,36,988.76
2021,10,05,23,37,988.76
2021,10,05,23,38,988.76
2021,10,05,23,39,988.76
2021,10,05,23,40,988.76
2021,10,05,23,41,988.76
2021,10,05,23,42,988.76
2021,10,05,23,43,988.76
2021,10,05,23,44,988.76
2021,10,05,23,45,988.76
2021,10,05,23,46,988.76
2021,10,05,23,47,988.76
2021,10,05,23,48,988.76
2021,10,05,23,49,988.76
2021,10,05,23,50,988.76
2021,10,05,23,51,988.76
2021,10,05,23,52,988.76
2021,10,05,23,53,988.76
2021,10,05,23,54,988.76
2021,10,05,23,55,988.76
2021,10,05,23,56,988.76
2021,10,05,23,57,988.76
2021,10,05,23,58,988.76
2021,10,05,23,59,988.76
